Weather History for Greenville, AL

Change the Weather History Date:

Wednesday, April 9, 2014

  Actual Average Record
Temperature  
Mean Temperature 60 °F -  
Max Temperature 71 °F 76 °F 88 °F (1946)
Min Temperature 46 °F 50 °F 35 °F (1957)
Degree Days  
Heating Degree Days 5    
Growing Degree Days 10 (Base 50)    
Moisture  
Dew Point 43 °F    
Average Humidity 67    
Maximum Humidity 90    
Minimum Humidity 24    
Precipitation  
Precipitation 0.00 in - - ()
Sea Level Pressure  
Sea Level Pressure 30.07 in    
Wind  
Wind Speed 8 mph (NW)    
Max Wind Speed 13 mph    
Max Gust Speed 21 mph    
Visibility 10 miles    
Events      
Averages and records for this station are not official NWS values.
T = Trace of Precipitation, MM = Missing Value Source: NWS Daily Summary

Daily Weather History Graph

Daily Weather History Graph

Search for Another Location

Airport:

Trip Planner

Search our weather history database for the weather conditions in past years. The results will help you decide how hot, cold, wet, or windy it might be!

Date:

Astronomy

Apr. 09, 2014 Rise Set
Actual Time 6:24 AM CDT 7:11 PM CDT
Civil Twilight 6:00 AM CDT 7:36 PM CDT
Nautical Twilight 5:30 AM CDT 8:05 PM CDT
Astronomical Twilight 5:01 AM CDT 8:35 PM CDT
Moon 2:16 PM CDT (4/9) 2:55 AM CDT (4/9)
Length of Visible Light 13h 36m
Length of Day
12h 46m
Waxing Gibbous, 72% of the Moon is Illuminated
Apr 9
Waxing Gibbous
Apr 15
Full
Apr 22
Last Quarter
Apr 29
New
May 6
First Quarter

Hourly Weather History & Observations

Time (CDT) Temp. Dew Point Humidity Pressure Visibility Wind Dir Wind Speed Gust Speed Precip Events Conditions
12:56 AM 51.1 °F 46.9 °F 86% 29.93 in 10.0 mi WNW 8.1 mph - N/A   Overcast
1:56 AM 51.1 °F 46.9 °F 86% 29.94 in 10.0 mi NW 9.2 mph - N/A   Overcast
2:56 AM 51.1 °F 46.9 °F 86% 29.95 in 10.0 mi NW 9.2 mph - 0.00 in   Overcast
3:34 AM 51.8 °F 48.2 °F 88% 29.96 in 10.0 mi NW 6.9 mph - N/A   Overcast
3:56 AM 51.1 °F 46.9 °F 86% 29.96 in 10.0 mi WNW 9.2 mph - N/A   Overcast
4:06 AM 51.8 °F 46.4 °F 82% 29.96 in 10.0 mi NW 8.1 mph - N/A   Mostly Cloudy
4:24 AM 50.0 °F 46.4 °F 87% 29.97 in 10.0 mi WNW 6.9 mph - N/A   Mostly Cloudy
4:56 AM 50.0 °F 46.9 °F 89% 29.97 in 10.0 mi NW 6.9 mph - N/A   Overcast
5:11 AM 50.0 °F 46.4 °F 87% 29.99 in 10.0 mi NW 9.2 mph - N/A   Overcast
5:56 AM 51.1 °F 46.9 °F 86% 30.01 in 10.0 mi NNW 9.2 mph - N/A   Mostly Cloudy
6:52 AM 51.8 °F 46.4 °F 82% 30.06 in 10.0 mi NW 5.8 mph - N/A   Overcast
6:56 AM 51.1 °F 46.9 °F 86% 30.06 in 10.0 mi NW 9.2 mph - N/A   Overcast
7:19 AM 51.8 °F 46.4 °F 82% 30.08 in 10.0 mi WNW 6.9 mph - N/A   Scattered Clouds
7:33 AM 51.8 °F 46.4 °F 82% 30.08 in 10.0 mi NW 9.2 mph - N/A   Mostly Cloudy
7:54 AM 51.8 °F 46.4 °F 82% 30.09 in 10.0 mi NW 5.8 mph - N/A   Scattered Clouds
7:56 AM 52.0 °F 46.9 °F 83% 30.09 in 10.0 mi NW 9.2 mph - N/A   Scattered Clouds
8:56 AM 55.9 °F 46.0 °F 69% 30.11 in 10.0 mi North 10.4 mph - N/A   Clear
9:56 AM 60.1 °F 44.1 °F 55% 30.14 in 10.0 mi North 10.4 mph - N/A   Clear
10:56 AM 63.0 °F 42.1 °F 46% 30.15 in 10.0 mi North 12.7 mph 17.3 mph N/A   Clear
11:56 AM 64.0 °F 37.9 °F 38% 30.15 in 10.0 mi NW 11.5 mph 17.3 mph N/A   Partly Cloudy
12:56 PM 66.9 °F 37.0 °F 33% 30.14 in 10.0 mi NNW 10.4 mph 18.4 mph N/A   Scattered Clouds
1:56 PM 66.9 °F 35.1 °F 31% 30.13 in 10.0 mi North 11.5 mph 20.7 mph N/A   Partly Cloudy
2:56 PM 70.0 °F 35.1 °F 28% 30.11 in 10.0 mi North 10.4 mph - N/A   Clear
3:56 PM 70.0 °F 30.9 °F 24% 30.10 in 10.0 mi NNW 8.1 mph 18.4 mph N/A   Clear
4:56 PM 70.0 °F 32.0 °F 25% 30.10 in 10.0 mi Calm Calm - N/A   Clear
5:56 PM 69.1 °F 32.0 °F 25% 30.11 in 10.0 mi NW 9.2 mph - N/A   Clear
6:56 PM 66.0 °F 33.1 °F 29% 30.12 in 10.0 mi NW 5.8 mph - N/A   Clear
7:56 PM 57.9 °F 42.1 °F 56% 30.14 in 10.0 mi WNW 4.6 mph - N/A   Clear
8:56 PM 54.0 °F 45.0 °F 72% 30.16 in 10.0 mi Calm Calm - N/A   Clear
9:56 PM 52.0 °F 45.0 °F 77% 30.18 in 10.0 mi Calm Calm - N/A   Clear
10:56 PM 50.0 °F 46.0 °F 86% 30.19 in 10.0 mi Calm Calm - N/A   Clear
11:56 PM 46.9 °F 44.1 °F 90% 30.20 in 10.0 mi Calm Calm - N/A   Clear